Voltar ao catálogo

COSMOS 970 DEB

AtivoLEO
NORAD 64988·DEBRIS·🇷🇺 Russia

Lançado Dec 21, 1977 de Baikonur Cosmodrome

Loading…

Próximas Passagens (próximas 24 horas)

TLE

EnvelhecendoSource: Space-Track

Época: Sep 10, 2026, 08:19 UTC

1 64988U 77121CZ  26253.34689881  .00000127  00000-0  23955-3 0  9995
2 64988  65.8552 204.4784 0100939 107.0383 333.9156 13.66455398150490

Acompanhe COSMOS 970 DEB em tempo real com AllMySat

Download on the App Store